Flag for Macedonia, Republic of Weather past 2 weeks in Skopje, Macedonia, Republic of

Now
45 °F

Clear.


Feels Like: 45 °F
Forecast: 39 / 49 °F
Wind: No wind

Location: Skopje-Petrovec

Current Time: Oct 22, 2014 at 4:08:15 AM

Latest Report: Oct 22, 2014 at 3:30 AM


Visibility: 10 mi

Pressure: 29.80 "Hg

Humidity: 100%

Dew point: 45 °F

Location of SkopjeLocation

Historic Weather in Skopje — Graph

°F

Skopje temperature yesterday

Maximum temperature yesterday: 72 °F (at 3:00 PM)
Minimum temperature yesterday: 39 °F (at 6:00 AM)
Average temperature yesterday: 53 °F

Past Weeks' High & Low Weather Summary

 TemperatureHumidityPressure
High77 °F (Oct 11, 4:00 PM)100% (Oct 8, 4:30 AM)30.39 "Hg (Oct 8, 4:30 AM)
Low39 °F (Oct 21, 6:00 AM)35% (Oct 19, 3:30 PM)29.83 "Hg (Oct 22, 2:00 AM)
Average59 °F83%30.11 "Hg
* Reported Oct 7 3:00 AM — Oct 22 3:00 AM, Skopje, Weather by CustomWeather, © 2014

Note: Actual official high and low records may vary slightly from our data, if they occured in-between our weather recording intervals... More about our weather records

Advertising

Skopje weather history for previous 24 hours

 ConditionsComfort  
Time TempWeatherWind HumidityBarometerVisibility
3:00 AM
Oct 22
46 °FClear.2 mph93%29.83 "Hg10 mi
2:30 AM45 °FClear.2 mph93%29.83 "Hg10 mi
2:00 AM45 °FClear.No wind93%29.83 "Hg10 mi
1:30 AM45 °FClear.No wind93%29.86 "Hg10 mi
1:00 AM46 °FClear.No wind93%29.86 "Hg10 mi
12:30 AM46 °FClear.No wind93%29.86 "Hg10 mi
12:00 AM46 °FClear.No wind93%29.86 "Hg10 mi
11:30 PM
Oct 21
48 °FClear.No wind87%29.86 "Hg10 mi
11:00 PM48 °FClear.No wind87%29.86 "Hg10 mi
10:30 PM48 °FClear.No wind94%29.86 "Hg10 mi
10:00 PM50 °FClear.No wind88%29.89 "Hg10 mi
9:30 PM52 °FClear.No wind82%29.89 "Hg10 mi
9:00 PM52 °FClear.No wind82%29.89 "Hg10 mi
8:30 PM54 °FClear.No wind82%29.89 "Hg10 mi
8:00 PM54 °FClear.No wind82%29.89 "Hg10 mi
7:30 PM54 °FClear.No wind88%29.89 "Hg10 mi
7:00 PM55 °FClear.1 mph82%29.89 "Hg10 mi
6:30 PM59 °FSunny.No wind77%29.89 "Hg10 mi
6:00 PM61 °FSunny.No wind72%29.86 "Hg10 mi
5:30 PM64 °FSunny.No wind64%29.86 "Hg10 mi
5:00 PM68 °FSunny.1 mph53%29.86 "Hg10 mi
4:30 PM70 °FSunny.1 mph50%29.86 "Hg10 mi
4:00 PM70 °FSunny.2 mph50%29.86 "Hg10 mi
3:30 PM70 °FSunny.2 mph50%29.86 "Hg10 mi
3:00 PM72 °FSunny.2 mph50%29.89 "Hg10 mi
2:30 PM70 °FSunny.No wind50%29.89 "Hg10 mi
2:00 PM70 °FSunny.No wind50%29.89 "Hg10 mi
1:30 PM66 °FSunny.2 mph56%29.92 "Hg10 mi
1:00 PM66 °FSunny.1 mph60%29.92 "Hg10 mi
12:30 PM66 °FSunny.1 mph60%29.95 "Hg10 mi
12:00 PM64 °FSunny.No wind60%29.95 "Hg10 mi
11:30 AM61 °FSunny.No wind68%29.98 "Hg10 mi
11:00 AM57 °FSunny.1 mph72%29.98 "Hg10 mi
10:30 AM55 °FSunny.No wind77%30.01 "Hg10 mi
10:00 AM52 °FClear.No wind82%30.01 "Hg5 mi
9:30 AM52 °FClear.No wind82%30.01 "Hg5 mi
9:00 AM48 °FClear.No wind87%30.04 "Hg4 mi
8:30 AM46 °FFog.No wind93%30.04 "Hg3 mi
8:00 AM43 °FFog.No wind93%30.04 "Hg2 mi
7:30 AM39 °FFog.No wind93%30.04 "Hg1 mi
7:00 AM39 °FFog.No wind93%30.04 "Hg1 mi
6:30 AM39 °FFog.No wind100%30.04 "Hg2 mi
6:00 AM39 °FFog.No wind100%30.04 "Hg2 mi
5:00 AM41 °FClear.No wind93%30.07 "Hg4 mi
4:30 AM41 °FFog.No wind100%30.07 "Hg3 mi
4:00 AM41 °FFog.No wind100%30.07 "Hg2 mi
Weather by CustomWeather, © 2014

See weather overviewHow to use our weather pages